Location: Terre Du Lac
(37.9120°N, 90.6250°W)
Time: 02:31:02
(UTC-05:00)

HST - Visible Passes

Search period start: 01 September 2014 00:00
Search period end: 11 September 2014 00:00
Orbit: 547 x 551 km, 28.5° (Epoch: 31 August)

Date Brightness Start Highest point End Pass type
(mag) Time Alt. Az. Time Alt. Az. Time Alt. Az.
05 Sep 3.0 20:26:18 10° S 20:27:30 11° SSE 20:28:03 11° SSE visible
06 Sep 2.8 20:18:20 10° SSW 20:20:24 13° SSE 20:21:42 12° SE visible
07 Sep 2.7 20:10:46 10° SSW 20:13:19 16° SSE 20:15:16 12° SE visible
08 Sep 2.6 20:03:23 10° SSW 20:06:14 18° S 20:08:45 11° SE visible
08 Sep 3.4 21:43:50 10° SW 21:44:19 12° SW 21:44:19 12° SW visible
09 Sep 2.5 19:56:06 10° SW 19:59:10 20° S 20:02:11 10° SE visible
09 Sep 3.2 21:36:50 10° SW 21:37:44 14° SW 21:37:44 14° SW visible
10 Sep 2.5 19:48:54 10° SW 19:52:05 21° S 19:55:16 10° SE visible
10 Sep 3.1 21:29:53 10° SW 21:31:07 15° SW 21:31:07 15° SW visible
